Regional Weather Roundup
Issued by NWS State College, PA

Home | Current Version | Previous Version | Text Only | Print | Product List | Glossary Off
Versions: 1 2 3 4 5 6 7 8 9 10 11 12 13 14 15 16 17 18 19 20 21 22 23 24 25 26 27 28 29 30 31 32 33 34 35 36 37 38 39 40 41 42 43 44 45 46 47 48 49 50

000
ASUS41 KCTP 082110
RWRCTP

REGIONAL WEATHER ROUNDUP
NATIONAL WEATHER SERVICE STATE COLLEGE PA
400 PM EST THU DEC 08 2016

Note: "fair" indicates few or no clouds below 12,000 feet with no
significant weather and/or obstructions to visibility.

* = STATION THAT DOES NOT REPORT PRECIPITATION /E.G. RAIN...SNOW...ETC/
    THUNDER OR FOG.

PAZ002>004-007>009-013>016-020>023-029>032-082200-
WESTERN PENNSYLVANIA

CITY           SKY/WX    TMP DP  RH WIND       PRES   REMARKS
ERIE           LGT SNOW  26  22  84 SW21G28   30.06R VSB 3/4 WCI  12
MEADVILLE      CLOUDY    24  15  68 SW15G26   30.05R WCI  11
FRANKLIN*        N/A     25  12  58 W20G25    30.06R WCI  11
NEW CASTLE     FLURRIES  26  17  68 W12       30.13R
BEAVER COUNTY  LGT SNOW  25  19  80 W12G17    30.13R WCI  14
BUTLER*        CLOUDY    25  16  68 W12       30.14R WCI  14
PITTSBURGH INT FLURRIES  28  16  60 W15G24    30.13R
PITTSBURGH     FLURRIES  26  15  63 W15G23    30.12R WCI  14
INDIANA*       CLOUDY    25  18  74 W14G20    30.12R WCI  13
LATROBE        CLOUDY    28  16  59 W12G29    30.13R
WASHINGTON CO* CLOUDY    27  16  63 W13G18    30.15R
$$

PAZ004>006-010>012-017>019-024>028-033>037-041-042-045-046-049>053-082200-
CENTRAL PENNSYLVANIA

CITY           SKY/WX    TMP DP  RH WIND       PRES   REMARKS
BRADFORD       FLURRIES  24  16  71 W12G23    29.94R WCI  13
DUBOIS         CLOUDY    24  12  60 W17G30    30.01R WCI  11
CLEARFIELD     CLOUDY    28  14  55 W15G25    30.02R
JOHNSTOWN      FLURRIES  24  16  71 W17G29    30.00R WCI  11
ALTOONA        MOCLDY    30  15  53 NW23G30   30.02R
STATE COLLEGE  CLOUDY    30  14  51 W17       30.02R
WILLIAMSPORT   MOCLDY    36  14  40 W17G28    29.97R
SELINSGROVE    PTCLDY    35  19  52 W15G24    30.00R
FT INDIANTOWN  NOT AVBL
CAPITAL CITY   CLEAR     41  14  33 NW16G25   30.01R
HARRISBURG     PTCLDY    40  18  41 NW23G29   30.00R
YORK           CLEAR     40  18  41 W14G24    30.00R
$$

PAZ038>040-043-044-047-048-054-055-060>062-067>071-082200-
EASTERN PENNSYLVANIA

CITY           SKY/WX    TMP DP  RH WIND       PRES   REMARKS
SCRANTON       MOCLDY    37  16  42 W13G22    29.90R
MOUNT POCONO   CLOUDY    32  16  51 W17G24    29.85R
ALLENTOWN      CLEAR     41  19  41 W14G23    29.93R
QUAKERTOWN*    CLOUDY    37  19  48 W9        29.94S
READING        PTCLDY    40  17  39 W18G25    29.96R
LANCASTER      CLOUDY    41  21  44 W17       29.97R
COATESVILLE    PTCLDY    39  19  45 W9        29.97R
POTTSTOWN      CLOUDY    39  19  44 W8        29.96R
BLUE BELL      CLOUDY    39  19  45 W5        29.94R
DOYLESTOWN     CLOUDY    41  19  41 W8        29.93R
WILLOW GROVE   NOT AVBL
NORTH PHILA    CLOUDY    43  17  35 NW10G20   29.97R
PHILADELPHIA   MOCLDY    45  18  34 W14       29.97R
$$



USA.gov is the U.S. government's official web portal to all federal, state and local government web resources and services.